Regional Weather Roundup
Issued by NWS State College, PA

Home | Current Version | Previous Version | Graphics & Text | Print | Product List | Glossary On
Versions: 1 2 3 4 5 6 7 8 9 10 11 12 13 14 15 16 17 18 19 20 21 22 23 24 25 26 27 28 29 30 31 32 33 34 35 36 37 38 39 40 41 42 43 44 45 46 47 48 49 50
000
ASUS41 KCTP 222303
RWRCTP
REGIONAL WEATHER ROUNDUP
NATIONAL WEATHER SERVICE STATE COLLEGE PA
600 PM EST MON JAN 22 2018

Note: "fair" indicates few or no clouds below 12,000 feet with no
significant weather and/or obstructions to visibility.

* = STATION THAT DOES NOT REPORT PRECIPITATION /E.G. RAIN...SNOW...ETC/
    THUNDER OR FOG.

PAZ002>004-007>009-013>016-020>023-029>032-230000-
WESTERN PENNSYLVANIA

CITY           SKY/WX    TMP DP  RH WIND       PRES   REMARKS
ERIE           FAIR     N/A N/A N/A SE10      29.76F
MEADVILLE      MOCLDY    55  46  71 S7        29.79F
FRANKLIN*      CLOUDY    53  47  79 S8        29.82F
NEW CASTLE     FAIR      58  46  64 S6        29.80F
BEAVER COUNTY  PTCLDY    57  45  62 S6        29.81F
BUTLER*        MOCLDY    59  44  57 S5        29.83S
PITTSBURGH INT CLOUDY    60  44  55 S5        29.81F
PITTSBURGH     MOCLDY    61  41  47 SW3       29.82S
INDIANA*       CLEAR     59  45  58 S13G20    29.88S
LATROBE        MOCLDY    61  43  51 S9        29.84F
WASHINGTON CO* FAIR      57  45  64 CALM      29.85F
$$

PAZ004>006-010>012-017>019-024>028-033>037-041-042-045-046-049>053-230000-
CENTRAL PENNSYLVANIA

CITY           SKY/WX    TMP DP  RH WIND       PRES   REMARKS
BRADFORD       FAIR      47  45  93 SE8       29.86F
DUBOIS           N/A    N/A N/A N/A MISG      29.85F
CLEARFIELD     FAIR      48  47  96 NE7       29.90F
JOHNSTOWN      FAIR      54  42  64 SE14G22   29.87F
ALTOONA        FAIR      52  43  71 CALM      29.92F
STATE COLLEGE  MOCLDY    41  41 100 N5        29.94F FOG
WILLIAMSPORT   CLOUDY    40  39  97 SE7       29.99F FOG
SELINSGROVE    FOG       36  35  96 CALM      30.01S VSB 1/2
FT INDIANTOWN  FAIR      45  44  96 NE5       30.03S
CAPITAL CITY   FAIR      48  41  76 E5        30.00F
HARRISBURG     CLOUDY    49  42  77 E7        30.00F
YORK           FAIR      50  42  74 E5        29.99F
$$

PAZ038>040-043-044-047-048-054-055-060>062-067>071-230000-
EASTERN PENNSYLVANIA

CITY           SKY/WX    TMP DP  RH WIND       PRES   REMARKS
SCRANTON       CLOUDY    45  42  89 W3        30.02S
MOUNT POCONO   CLOUDY    41  40  96 E8        30.05R
ALLENTOWN      FAIR      44  37  76 NE6       30.07F
QUAKERTOWN*    NOT AVBL
READING        FAIR      46  42  86 N7        30.04S
LANCASTER      FAIR      48  43  82 E5        30.03S
COATESVILLE    FAIR      54  43  66 SE5       30.06S
POTTSTOWN      FAIR      49  39  68 CALM      30.07F
BLUE BELL      FAIR      46  39  76 E6        30.08S
DOYLESTOWN     FAIR      48  39  71 NE3       30.07F
WILLOW GROVE   NOT AVBL
NORTH PHILA    FAIR      52  41  66 NE3       30.09S
PHILADELPHIA   MOCLDY    53  40  61 E3        30.07S
$$




USA.gov is the U.S. government's official web portal to all federal, state and local government web resources and services.